Change the Weather History Date:

Wednesday, January 22, 2014

  Actual Average Record
Temperature  
Mean Temperature 12 °F -  
Max Temperature 19 °F 41 °F 63 °F (1967)
Min Temperature 4 °F 21 °F -1 °F (1970)
Degree Days  
Heating Degree Days 54    
Moisture  
Dew Point -4 °F    
Average Humidity 49    
Maximum Humidity 74    
Minimum Humidity 24    
Precipitation  
Precipitation 0.00 in - - ()
Sea Level Pressure  
Sea Level Pressure 29.81 in    
Wind  
Wind Speed 12 mph (WNW)    
Max Wind Speed 23 mph    
Max Gust Speed 33 mph    
Visibility 9 miles    
Events Snow    
Averages and records for this station are not official NWS values.
T = Trace of Precipitation, MM = Missing Value Source: NWS Daily Summary

Daily Weather History Graph

Daily Weather History Graph

Search for Another Location

Airport or City:

Trip Planner

Search our weather history database for the weather conditions in past years. The results will help you decide how hot, cold, wet, or windy it might be!

Date:

Astronomy

Jan. 22, 2014 Rise Set
Actual Time 7:33 AM EST 5:41 PM EST
Civil Twilight 7:06 AM EST 6:08 PM EST
Nautical Twilight 6:34 AM EST 6:40 PM EST
Astronomical Twilight 6:04 AM EST 7:10 PM EST
Moon No Moon Rise 10:45 AM EST (1/22)
Length of Visible Light 11h 02m
Length of Day
10h 07m
Waning Gibbous, 65% of the Moon is Illuminated
Jan 22
Waning Gibbous
Jan 24
Last Quarter
Jan 30
New
Feb 6
First Quarter
Feb 14
Full

Hourly Weather History & Observations

Time (EST) Temp. Windchill Dew Point Humidity Pressure Visibility Wind Dir Wind Speed Gust Speed Precip Events Conditions
12:15 AM 12.7 °F -1.8 °F 5.7 °F 74% 29.72 in 5.0 mi NW 12.7 mph 26.5 mph N/A Snow Light Snow
12:35 AM 12.0 °F -1.3 °F 4.1 °F 71% 29.73 in 7.0 mi NW 10.4 mph 23.0 mph N/A Snow Light Snow
12:55 AM 11.8 °F -4.8 °F 5.0 °F 74% 29.73 in 2.5 mi NW 16.1 mph 23.0 mph N/A Snow Light Snow
1:15 AM 11.3 °F -2.9 °F 4.3 °F 73% 29.73 in 3.0 mi NW 11.5 mph 21.9 mph N/A Snow Light Snow
1:35 AM 10.8 °F -6.2 °F 3.0 °F 71% 29.73 in 4.0 mi NW 16.1 mph 26.5 mph N/A Snow Light Snow
1:55 AM 10.2 °F -6.9 °F 3.2 °F 73% 29.72 in 7.0 mi NW 16.1 mph 28.8 mph N/A Snow Light Snow
2:15 AM 10.0 °F -7.1 °F 2.3 °F 71% 29.74 in 7.0 mi NNW 16.1 mph 25.3 mph N/A Snow Light Snow
2:35 AM 9.5 °F -4.4 °F 2.3 °F 73% 29.76 in 7.0 mi NNW 10.4 mph 18.4 mph N/A Snow Light Snow
2:55 AM 9.5 °F -0.3 °F 2.3 °F 73% 29.76 in 10.0 mi WNW 5.8 mph 9.2 mph N/A Snow Light Snow
3:15 AM 9.5 °F -5.9 °F 1.2 °F 69% 29.75 in 10.0 mi NW 12.7 mph 21.9 mph N/A   Mostly Cloudy
3:35 AM 9.0 °F -7.3 °F 1.4 °F 71% 29.74 in 7.0 mi NW 13.8 mph 24.2 mph N/A Snow Light Snow
3:55 AM 9.0 °F -5.9 °F 1.6 °F 72% 29.75 in 5.0 mi NW 11.5 mph 20.7 mph N/A Snow Light Snow
4:15 AM 8.6 °F -7.7 °F 1.0 °F 71% 29.75 in 5.0 mi WNW 13.8 mph 28.8 mph N/A Snow Light Snow
4:35 AM 8.2 °F -6.8 °F -0.0 °F 69% 29.75 in 5.0 mi NW 11.5 mph 24.2 mph N/A Snow Light Snow
4:55 AM 7.7 °F -8.9 °F -0.4 °F 70% 29.75 in 5.0 mi NW 13.8 mph 20.7 mph N/A Snow Light Snow
5:15 AM 7.5 °F -6.9 °F 0.1 °F 72% 29.75 in 5.0 mi NW 10.4 mph 20.7 mph N/A Snow Light Snow
5:35 AM 7.5 °F -6.9 °F -0.8 °F 69% 29.76 in 10.0 mi NW 10.4 mph 19.6 mph N/A Snow Light Snow
5:55 AM 7.5 °F -6.9 °F -0.9 °F 68% 29.76 in 7.0 mi WNW 10.4 mph 16.1 mph N/A Snow Light Snow
6:15 AM 7.3 °F -4.1 °F -1.5 °F 67% 29.76 in 7.0 mi NW 6.9 mph - N/A Snow Light Snow
6:35 AM 7.2 °F -7.3 °F -2.0 °F 66% 29.77 in 10.0 mi WNW 10.4 mph 18.4 mph N/A Snow Light Snow
6:55 AM 6.8 °F -4.8 °F -2.4 °F 66% 29.78 in 10.0 mi WNW 6.9 mph - N/A Snow Light Snow
7:15 AM 6.6 °F -5.0 °F -2.9 °F 65% 29.79 in 10.0 mi NW 6.9 mph - N/A   Scattered Clouds
7:35 AM 6.1 °F -6.8 °F -4.0 °F 63% 29.79 in 10.0 mi WNW 8.1 mph - N/A   Clear
7:55 AM 5.5 °F -9.3 °F -5.4 °F 61% 29.79 in 10.0 mi WNW 10.4 mph 20.7 mph N/A   Clear
8:15 AM 5.0 °F -14.2 °F -5.4 °F 62% 29.79 in 10.0 mi West 17.3 mph 25.3 mph N/A   Clear
8:35 AM 4.6 °F -15.2 °F -4.4 °F 66% 29.80 in 7.0 mi WNW 18.4 mph 28.8 mph N/A   Clear
8:55 AM 5.4 °F -14.8 °F -4.7 °F 63% 29.80 in 10.0 mi WNW 19.6 mph 28.8 mph N/A   Clear
9:20 AM 6.3 °F -14.1 °F -5.8 °F 58% 29.82 in 10.0 mi WNW 20.7 mph 26.5 mph N/A   Clear
9:35 AM 6.6 °F -13.1 °F -5.3 °F 58% 29.82 in 10.0 mi WNW 19.6 mph 28.8 mph N/A   Clear
9:55 AM 7.7 °F -10.7 °F -5.1 °F 56% 29.83 in 10.0 mi West 17.3 mph 26.5 mph N/A   Clear
10:15 AM 8.4 °F -11.7 °F -5.8 °F 52% 29.83 in 10.0 mi WNW 21.9 mph 29.9 mph N/A   Clear
10:35 AM 9.1 °F -8.2 °F -6.7 °F 49% 29.84 in 10.0 mi WNW 16.1 mph 28.8 mph N/A   Clear
10:55 AM 10.6 °F -4.5 °F -6.3 °F 47% 29.85 in 10.0 mi WNW 12.7 mph 23.0 mph N/A   Unknown
11:15 AM 11.3 °F -2.9 °F -5.8 °F 46% 29.85 in 10.0 mi WNW 11.5 mph 19.6 mph N/A   Clear
11:35 AM 12.7 °F 2.4 °F -4.4 °F 47% 29.85 in 10.0 mi NW 6.9 mph 20.7 mph N/A   Clear
11:55 AM 14.0 °F 2.9 °F -3.6 °F 46% 29.84 in 10.0 mi NW 8.1 mph - N/A   Clear
12:15 PM 14.2 °F 5.3 °F -3.1 °F 46% 29.84 in 10.0 mi NW 5.8 mph - N/A   Clear
12:35 PM 15.3 °F 2.8 °F -1.8 °F 47% 29.83 in 10.0 mi West 10.4 mph - N/A   Clear
12:55 PM 15.1 °F 1.1 °F -3.3 °F 44% 29.82 in 10.0 mi WNW 12.7 mph - N/A   Clear
1:15 PM 16.3 °F 5.7 °F -5.1 °F 39% 29.81 in 10.0 mi West 8.1 mph - N/A   Clear
1:35 PM 17.2 °F 8.9 °F -6.9 °F 34% 29.82 in 10.0 mi West 5.8 mph - N/A   Clear
1:55 PM 17.6 °F 7.3 °F -7.4 °F 33% 29.81 in 10.0 mi West 8.1 mph 11.5 mph N/A   Clear
2:15 PM 19.0 °F 9.0 °F -3.8 °F 36% 29.81 in 10.0 mi West 8.1 mph - N/A   Clear
2:35 PM 18.3 °F 4.6 °F -5.4 °F 35% 29.81 in 10.0 mi West 13.8 mph - N/A   Clear
2:55 PM 18.7 °F - -6.9 °F 32% 29.81 in 10.0 mi Calm Calm - N/A   Clear
3:15 PM 19.2 °F 9.3 °F -5.1 °F 34% 29.81 in 10.0 mi NW 8.1 mph - N/A   Clear
3:35 PM 19.9 °F 10.1 °F -5.8 °F 32% 29.82 in 10.0 mi West 8.1 mph - N/A   Clear
3:55 PM 19.8 °F 7.1 °F -5.8 °F 32% 29.82 in 10.0 mi West 12.7 mph - N/A   Clear
4:15 PM 19.0 °F 11.1 °F -3.3 °F 37% 29.83 in 10.0 mi West 5.8 mph - N/A   Clear
4:35 PM 18.7 °F - -4.2 °F 36% 29.83 in 10.0 mi Calm Calm - N/A   Clear
4:55 PM 18.5 °F 9.3 °F -5.1 °F 35% 29.83 in 10.0 mi West 6.9 mph - N/A   Clear
5:15 PM 18.3 °F 10.2 °F -7.1 °F 32% 29.83 in 10.0 mi WNW 5.8 mph - N/A   Clear
5:35 PM 17.6 °F 9.3 °F -5.8 °F 35% 29.84 in 10.0 mi West 5.8 mph - N/A   Clear
5:55 PM 17.1 °F 10.0 °F -5.3 °F 37% 29.84 in 10.0 mi West 4.6 mph - N/A   Mostly Cloudy
6:15 PM 17.2 °F 11.9 °F -7.6 °F 33% 29.85 in 10.0 mi West 3.5 mph - N/A   Overcast
6:35 PM 17.2 °F - -9.0 °F 31% 29.85 in 10.0 mi Calm Calm - N/A   Overcast
6:55 PM 17.4 °F 12.1 °F -9.6 °F 30% 29.86 in 10.0 mi WNW 3.5 mph - N/A   Overcast
7:15 PM 16.7 °F - -8.1 °F 33% 29.86 in 10.0 mi Calm Calm - N/A   Overcast
7:35 PM 17.1 °F 6.6 °F -9.0 °F 31% 29.86 in 10.0 mi WNW 8.1 mph - N/A   Overcast
7:55 PM 18.1 °F 3.9 °F -13.2 °F 24% 29.87 in 10.0 mi West 15.0 mph 19.6 mph N/A   Overcast
8:15 PM 17.2 °F 3.9 °F -12.8 °F 26% 29.87 in 10.0 mi West 12.7 mph 25.3 mph N/A   Overcast
8:35 PM 17.1 °F 3.0 °F -12.5 °F 26% 29.88 in 10.0 mi West 13.8 mph 27.6 mph N/A   Overcast
8:55 PM 16.7 °F 1.5 °F -11.7 °F 28% 29.88 in 10.0 mi WSW 16.1 mph 27.6 mph N/A   Overcast
9:15 PM 16.3 °F 9.2 °F -9.4 °F 31% 29.88 in 10.0 mi West 4.6 mph 16.1 mph N/A   Overcast
9:35 PM 15.8 °F 7.2 °F -8.9 °F 33% 29.88 in 10.0 mi West 5.8 mph 20.7 mph N/A   Mostly Cloudy
9:55 PM 15.6 °F 1.8 °F -8.5 °F 34% 29.88 in 10.0 mi West 12.7 mph 23.0 mph N/A   Mostly Cloudy
10:15 PM 15.3 °F 0.2 °F -8.5 °F 34% 29.89 in 10.0 mi West 15.0 mph 19.6 mph N/A   Scattered Clouds
10:35 PM 15.4 °F -0.1 °F -8.5 °F 34% 29.89 in 10.0 mi West 16.1 mph 29.9 mph N/A   Scattered Clouds
10:55 PM 15.3 °F -2.2 °F -7.8 °F 36% 29.89 in 10.0 mi West 20.7 mph 33.4 mph N/A   Scattered Clouds
11:15 PM 14.9 °F -1.8 °F -6.7 °F 38% 29.89 in 10.0 mi West 18.4 mph 32.2 mph N/A   Clear
11:35 PM 14.9 °F -3.5 °F -6.5 °F 38% 29.88 in 10.0 mi West 23.0 mph 33.4 mph N/A   Clear
11:55 PM 14.9 °F -3.1 °F -4.9 °F 41% 29.88 in 10.0 mi West 21.9 mph 31.1 mph N/A   Clear